Terminal Aerodrome Forecast
Issued by NWS Green Bay, WI

Home | Current Version | Previous Version | Graphics & Text | Print | Product List | Glossary On
Versions: 1 2 3 4 5 6 7 8 9 10 11 12 13 14 15 16
000
FTUS43 KGRB 071135
TAFGRB
TAF
KGRB 071135Z 0712/0812 26014G24KT P6SM -SN BKN025
      TEMPO 0712/0715 SCT025
     FM072300 27012G21KT P6SM OVC025=

USA.gov is the U.S. government's official web portal to all federal, state and local government web resources and services.